Weather History for Fayetteville, AR

Change the Weather History Date:

Monday, November 12, 2012

  Actual Average Record
Temperature  
Mean Temperature 36 °F 49 °F  
Max Temperature 48 °F 61 °F 79 °F (1990)
Min Temperature 25 °F 38 °F 11 °F (1976)
Degree Days  
Heating Degree Days 28 16  
Month to date heating degree days 168  
Since 1 July heating degree days 468  
Moisture  
Dew Point 24 °F    
Average Humidity 69    
Maximum Humidity 92    
Minimum Humidity 37    
Precipitation  
Precipitation 0.00 in 0.15 in 0.51 in (1949)
Month to date precipitation 1.73  
Year to date precipitation 42.77  
Sea Level Pressure  
Sea Level Pressure 30.43 in    
Wind  
Wind Speed 4 mph (NW)    
Max Wind Speed 13 mph    
Max Gust Speed -    
Visibility 10 miles    
Events      
T = Trace of Precipitation, MM = Missing Value Source: NWS Daily Summary

Daily Weather History Graph

Daily Weather History Graph

Search for Another Location

Airport:

Trip Planner

Search our weather history database for the weather conditions in past years. The results will help you decide how hot, cold, wet, or windy it might be!

Date:

Astronomy

Nov. 12, 2012 Rise Set
Actual Time 6:50 AM CST 5:10 PM CST
Civil Twilight 6:23 AM CST 5:37 PM CST
Nautical Twilight 5:52 AM CST 6:08 PM CST
Astronomical Twilight 5:22 AM CST 6:38 PM CST
Moon 5:18 AM CST (11/12) 4:15 PM CST (11/12)
Length of Visible Light 11h 14m
Length of Day
10h 20m
Waning Crescent, 2% of the Moon is Illuminated
Nov 12
Waning Crescent
Nov 13
New
Nov 20
First Quarter
Nov 28
Full
Dec 6
Last Quarter

Hourly Weather History & Observations

Time (CST) Temp. Windchill Dew Point Humidity Pressure Visibility Wind Dir Wind Speed Gust Speed Precip Events Conditions
12:53 AM 33.1 °F 27.7 °F 26.1 °F 75% 30.28 in 10.0 mi North 5.8 mph - N/A   Mostly Cloudy
1:07 AM 32.0 °F 27.5 °F 26.6 °F 80% 30.28 in 10.0 mi North 4.6 mph - N/A   Scattered Clouds
1:53 AM 30.9 °F 26.2 °F 24.1 °F 76% 30.30 in 10.0 mi North 4.6 mph - N/A   Clear
2:53 AM 28.9 °F 23.9 °F 24.1 °F 82% 30.32 in 10.0 mi North 4.6 mph - N/A   Clear
3:53 AM 28.9 °F 25.2 °F 23.0 °F 78% 30.34 in 10.0 mi North 3.5 mph - N/A   Clear
4:53 AM 28.0 °F 22.8 °F 21.9 °F 78% 30.37 in 10.0 mi North 4.6 mph - N/A   Clear
5:53 AM 27.0 °F - 24.1 °F 89% 30.40 in 10.0 mi Calm Calm - N/A   Clear
6:53 AM 25.0 °F - 23.0 °F 92% 30.44 in 10.0 mi Calm Calm - N/A   Clear
7:53 AM 27.0 °F - 25.0 °F 92% 30.45 in 10.0 mi Calm Calm - N/A   Clear
8:53 AM 32.0 °F - 25.0 °F 75% 30.47 in 10.0 mi Calm Calm - N/A   Clear
9:53 AM 37.0 °F 33.3 °F 21.0 °F 52% 30.46 in 10.0 mi ESE 4.6 mph - N/A   Clear
10:53 AM 41.0 °F - 19.9 °F 43% 30.47 in 10.0 mi Calm Calm - N/A   Clear
11:53 AM 44.1 °F - 19.9 °F 38% 30.46 in 10.0 mi Calm Calm - N/A   Clear
12:53 PM 46.0 °F 43.1 °F 21.9 °F 39% 30.45 in 10.0 mi Variable 5.8 mph - N/A   Clear
1:53 PM 46.9 °F - 21.9 °F 37% 30.44 in 10.0 mi West 9.2 mph - N/A   Clear
2:53 PM 48.0 °F - 23.0 °F 37% 30.44 in 10.0 mi WNW 12.7 mph - N/A   Clear
3:53 PM 46.9 °F - 21.9 °F 37% 30.44 in 10.0 mi West 5.8 mph - N/A   Clear
4:53 PM 44.1 °F 41.5 °F 21.0 °F 40% 30.45 in 10.0 mi West 4.6 mph - N/A   Clear
5:53 PM 35.1 °F - 25.0 °F 67% 30.47 in 10.0 mi Calm Calm - N/A   Clear
6:53 PM 34.0 °F - 27.0 °F 75% 30.49 in 10.0 mi Calm Calm - N/A   Clear
7:53 PM 30.9 °F - 27.0 °F 85% 30.50 in 10.0 mi Calm Calm - N/A   Clear
8:53 PM 30.0 °F - 26.1 °F 85% 30.50 in 10.0 mi Calm Calm - N/A   Clear
9:53 PM 28.0 °F 22.8 °F 25.0 °F 88% 30.51 in 10.0 mi South 4.6 mph - N/A   Clear
10:53 PM 27.0 °F - 25.0 °F 92% 30.51 in 10.0 mi Calm Calm - N/A   Clear
11:53 PM 26.1 °F 20.5 °F 24.1 °F 92% 30.52 in 10.0 mi South 4.6 mph - N/A   Clear